Weather reports worldwide

Advertisment
Wattisham, United Kingdom (3590): temperature & dewpoint: 09.08.2018 20:00:00 - 15.08.2018 20:00:00 (BST)Wattisham, United Kingdom (3590): temperature -20cm & temperature -100cm: 09.08.2018 20:00:00 - 15.08.2018 20:00:00 (BST)Wattisham, United Kingdom (3590): wind speed: 09.08.2018 20:00:00 - 15.08.2018 20:00:00 (BST)Wattisham, United Kingdom (3590): wind direction: 09.08.2018 20:00:00 - 15.08.2018 20:00:00 (BST)Wattisham, United Kingdom (3590): reduced air pressure: 09.08.2018 20:00:00 - 15.08.2018 20:00:00 (BST)Wattisham, United Kingdom (3590): visibility: 09.08.2018 20:00:00 - 15.08.2018 20:00:00 (BST)Wattisham, United Kingdom (3590): sunshine duration: 09.08.2018 20:00:00 - 15.08.2018 20:00:00 (BST)Wattisham, United Kingdom (3590): precipitation: 09.08.2018 20:00:00 - 15.08.2018 20:00:00 (BST)
Date & Time tt [°C] td [°C] tt -20cm [°C] tt -100cm [°C] ff [km/h] ff [kn] dd ppp [hPa] vv [km] sd [min] rr [mm]
15.08.2018 20:00:00 22,0 15,0 - - 15 8 SSW - 10 - -
15.08.2018 19:00:00 22,3 14,3 - - 18 10 SW 1014,5 10 0 0,0
15.08.2018 18:00:00 22,5 14,3 - - 18 10 SW 1015,1 10 0 0,0
15.08.2018 17:00:00 23,1 14,2 - - 22 12 WSW 1015,6 10 12 0,0
15.08.2018 16:00:00 24,4 14,4 - - 26 14 WSW 1015,7 10 30 0,0
15.08.2018 15:00:00 24,3 13,8 - - 28 15 WSW 1016,0 10 30 0,0
15.08.2018 14:00:00 23,3 14,2 - - 26 14 WSW 1016,4 10 18 0,0
15.08.2018 13:00:00 21,2 14,2 - - 22 12 WSW 1016,8 10 0 0,0
15.08.2018 12:00:00 20,9 14,1 - - 21 11 WSW 1017,0 10 0 0,0
15.08.2018 11:00:00 20,7 13,9 - - 18 10 WSW 1017,0 10 36 0,0
15.08.2018 10:00:00 19,2 13,6 18,7 17,7 21 11 WSW 1017,1 30 42 0,0
15.08.2018 09:00:00 16,8 13,4 - - 15 8 WSW 1017,5 10 0 0,0
15.08.2018 08:00:00 15,7 13,2 - - 15 8 W 1017,6 10 36 0,0
15.08.2018 07:00:00 14,3 13,0 - - 11 6 WSW 1017,4 10 12 0,0
15.08.2018 06:00:00 13,3 12,3 - - 11 6 WSW 1017,2 10 0 0,0
15.08.2018 05:00:00 13,4 12,4 - - 13 7 WSW 1016,9 13 0 0,0
15.08.2018 04:00:00 13,7 12,4 - - 9 5 WSW 1016,9 18 0 0,0
15.08.2018 03:00:00 14,3 12,7 - - 13 7 WSW 1017,0 10 0 0,0
15.08.2018 02:00:00 15,4 13,0 - - 15 8 W 1017,0 27 0 0,0
15.08.2018 01:00:00 17,3 13,5 - - 13 7 W 1017,1 10 - 0,0
15.08.2018 00:00:00 19,1 14,4 - - 15 8 W 1016,9 45 0 0,0
14.08.2018 23:00:00 19,5 14,6 - - 13 7 W 1016,6 10 0 0,0
14.08.2018 22:00:00 18,7 14,3 - - 8 4 W 1016,6 10 0 0,0
14.08.2018 21:00:00 19,1 13,8 - - 9 5 W 1016,5 10 0 0,0
14.08.2018 20:00:00 21,3 12,9 - - 11 6 W 1015,9 10 0 0,0
14.08.2018 19:00:00 22,2 12,3 - - 15 8 W 1015,4 10 0 0,0
14.08.2018 18:00:00 22,6 11,8 - - 15 8 W 1015,5 10 0 0,0
14.08.2018 17:00:00 22,8 11,6 - - 13 7 W 1015,6 10 12 0,0
14.08.2018 16:00:00 21,7 11,8 - - 16 9 WSW 1015,9 10 6 0,0
14.08.2018 15:00:00 21,6 11,9 - - 22 12 W 1016,0 10 18 0,0
14.08.2018 14:00:00 20,3 12,2 - - 16 9 W 1016,1 10 6 0,0
14.08.2018 13:00:00 19,4 11,7 - - 21 11 W 1016,0 10 6 0,0
14.08.2018 12:00:00 19,5 12,0 - - 16 9 WNW 1015,7 10 6 0,0
14.08.2018 11:00:00 19,0 11,8 - - 18 10 WNW 1015,3 10 36 0,0
14.08.2018 10:00:00 18,2 12,5 18,7 17,7 16 9 WNW 1015,1 10 54 0,0
14.08.2018 09:00:00 17,4 12,6 - - 15 8 WNW 1014,7 10 36 0,0
14.08.2018 08:00:00 16,0 12,5 - - 18 10 WNW 1014,7 10 18 0,0
14.08.2018 07:00:00 14,5 12,4 - - 15 8 WNW 1014,0 10 0 0,0
14.08.2018 06:00:00 14,5 12,6 - - 13 7 W 1013,3 28 0 0,0
14.08.2018 05:00:00 15,3 12,7 - - 15 8 NW 1012,7 30 0 0,0
14.08.2018 04:00:00 15,6 12,8 - - 16 9 NW 1012,4 30 0 0,0
14.08.2018 03:00:00 16,0 13,3 - - 16 9 WNW 1012,1 35 0 0,0
14.08.2018 02:00:00 16,1 14,2 - - 16 9 NW 1011,5 30 0 0,0
14.08.2018 01:00:00 16,2 14,3 - - 18 10 NW 1011,0 28 - 0,0
14.08.2018 00:00:00 17,3 15,3 - - 18 10 WNW 1010,4 24 0 0,0
13.08.2018 23:00:00 17,4 15,9 - - 15 8 NW 1010,0 10 0 0,0
13.08.2018 22:00:00 16,6 15,4 - - 13 7 NW 1009,4 10 0 0,0
13.08.2018 21:00:00 17,4 16,0 - - 9 5 WNW 1008,8 10 0 0,0
13.08.2018 20:00:00 17,9 15,9 - - 9 5 WSW 1007,7 10 0 0,0
13.08.2018 19:00:00 19,4 14,3 - - 11 6 NW 1007,4 10 6 0,0
13.08.2018 18:00:00 20,9 14,6 - - 16 9 WNW 1006,8 10 18 0,0
13.08.2018 17:00:00 20,6 15,5 - - 18 10 NW 1006,7 10 6 0,0
13.08.2018 16:00:00 19,7 15,1 - - 22 12 WNW 1006,2 10 6 0,0
13.08.2018 15:00:00 21,5 14,6 - - 16 9 W 1005,8 10 36 0,0
13.08.2018 14:00:00 21,5 15,3 - - 18 10 W 1005,9 40 24 0,0
13.08.2018 13:00:00 20,4 15,1 - - 13 7 WNW 1005,9 10 6 0,0
13.08.2018 12:00:00 20,2 14,9 - - 11 6 W 1005,7 10 18 0,0
13.08.2018 11:00:00 19,0 14,1 - - 11 6 WNW 1005,5 10 24 0,0
13.08.2018 10:00:00 18,1 14,7 18,5 17,7 13 7 WNW 1005,4 10 30 0,0
13.08.2018 09:00:00 16,7 15,4 - - 13 7 NW 1005,4 10 12 0,0
13.08.2018 08:00:00 15,4 14,8 - - 9 5 WNW 1005,4 10 0 0,0
13.08.2018 07:00:00 15,0 14,6 - - 4 2 W 1005,2 5 0 0,0
13.08.2018 06:00:00 15,5 14,9 - - 9 5 W 1005,0 5 0 0,0
13.08.2018 05:00:00 15,6 15,2 - - 8 4 WSW 1005,0 3,4 0 0,0
13.08.2018 04:00:00 15,5 15,2 - - 8 4 SW 1005,2 7 0 0,0
13.08.2018 03:00:00 15,2 14,8 - - 8 4 SSW 1005,5 7 0 0,0
13.08.2018 02:00:00 15,4 14,8 - - 9 5 S 1006,1 11 0 0,2
13.08.2018 01:00:00 15,3 14,5 - - 8 4 S 1006,7 19 - 0,8
13.08.2018 00:00:00 15,4 14,3 - - 9 5 SSW 1007,0 10 0 2,8
12.08.2018 23:00:00 17,6 12,5 - - 8 4 S 1006,9 45 0 0,0
12.08.2018 22:00:00 17,8 12,4 - - 9 5 S 1007,5 50 0 0,0
12.08.2018 21:00:00 18,2 12,5 - - 8 4 S 1007,8 50 0 0,0
12.08.2018 20:00:00 18,4 12,7 - - 11 6 SSW 1007,9 50 0 0,0
12.08.2018 19:00:00 19,8 11,4 - - 16 9 SSW 1008,0 10 0 0,0
12.08.2018 18:00:00 20,9 10,6 - - 21 11 SSW 1008,5 50 0 0,0
12.08.2018 17:00:00 21,4 11,6 - - 15 8 SW 1008,8 45 0 0,0
12.08.2018 16:00:00 21,0 11,4 - - 26 14 SW 1009,4 40 0 0,0
12.08.2018 15:00:00 22,0 11,6 - - 28 15 SSW 1009,7 35 0 0,0
12.08.2018 14:00:00 22,4 12,3 - - 26 14 SSW 1009,8 40 0 0,0
12.08.2018 13:00:00 21,7 13,2 - - 22 12 SSW 1010,1 40 0 0,0
12.08.2018 12:00:00 21,5 14,4 - - 21 11 SSW 1010,6 40 6 0,0
12.08.2018 11:00:00 20,8 14,0 - - 22 12 SSW 1011,1 10 12 0,0
12.08.2018 10:00:00 19,2 13,9 18,4 18,0 22 12 SSW 1011,7 45 0 0,0
12.08.2018 09:00:00 18,8 14,6 - - 21 11 SSW 1012,0 45 0 0,0
12.08.2018 08:00:00 17,8 14,9 - - 15 8 SSW 1012,2 45 0 0,0
12.08.2018 07:00:00 16,9 14,8 - - 15 8 S 1012,5 10 0 0,0
12.08.2018 06:00:00 16,7 14,4 - - 15 8 S 1012,8 30 0 0,0
12.08.2018 05:00:00 16,6 14,8 - - 13 7 S 1013,5 50 0 0,0
12.08.2018 04:00:00 16,4 15,0 - - 13 7 S 1014,4 40 0 0,0
12.08.2018 03:00:00 16,4 14,9 - - 13 7 S 1015,3 35 0 0,0
12.08.2018 02:00:00 16,0 15,1 - - 15 8 S 1015,9 19 0 0,0
12.08.2018 01:00:00 15,6 14,9 - - 15 8 S 1016,6 15 - 0,0
12.08.2018 00:00:00 15,5 14,7 - - 11 6 S 1017,6 21 0 0,6
11.08.2018 23:00:00 15,5 14,7 - - 13 7 SSW 1018,5 8 0 0,4
11.08.2018 22:00:00 16,0 14,2 - - 13 7 SSW 1019,0 10 0 0,4
11.08.2018 21:00:00 17,5 12,4 - - 15 8 SSW 1019,1 50 0 0,0
11.08.2018 20:00:00 18,1 10,4 - - 11 6 S 1019,2 10 0 0,0
11.08.2018 19:00:00 18,7 9,7 - - 13 7 S 1019,6 50 0 0,0
11.08.2018 18:00:00 19,6 8,1 - - 15 8 S 1020,0 50 0 0,0
11.08.2018 17:00:00 20,5 6,4 - - 16 9 SSW 1020,0 50 42 0,0
11.08.2018 16:00:00 20,9 6,0 - - 18 10 SSW 1020,6 29 60 0,0
11.08.2018 15:00:00 20,7 6,1 - - 16 9 SSW 1021,3 29 54 0,0
11.08.2018 14:00:00 20,4 5,4 - - 15 8 SW 1021,7 40 60 0,0
11.08.2018 13:00:00 19,1 6,0 - - 11 6 W 1022,3 45 60 0,0
11.08.2018 12:00:00 17,9 6,7 - - 11 6 W 1022,6 10 54 0,0
11.08.2018 11:00:00 17,0 8,1 - - 13 7 W 1022,8 45 60 0,0
11.08.2018 10:00:00 15,6 8,8 17,9 18,2 11 6 W 1022,9 10 60 0,0
11.08.2018 09:00:00 14,1 10,2 - - 11 6 W 1022,9 10 60 0,0
11.08.2018 08:00:00 12,0 9,9 - - 15 8 W 1022,9 30 60 0,0
11.08.2018 07:00:00 9,8 8,3 - - 11 6 W 1022,5 30 48 0,0
11.08.2018 06:00:00 7,8 7,2 - - 13 7 W 1022,2 17 0 0,0
11.08.2018 05:00:00 6,8 6,3 - - 9 5 W 1021,8 10 0 0,0
11.08.2018 04:00:00 7,9 7,0 - - 11 6 W 1021,7 10 0 0,2
11.08.2018 03:00:00 8,5 7,5 - - 11 6 W 1021,4 25 0 0,0
11.08.2018 02:00:00 9,0 8,0 - - 13 7 W 1021,1 25 0 0,0
11.08.2018 01:00:00 8,0 7,6 - - 11 6 W 1020,9 15 - 0,0
11.08.2018 00:00:00 9,0 8,6 - - 13 7 WSW 1020,5 11 0 0,0
10.08.2018 23:00:00 9,6 9,2 - - 11 6 WSW 1019,9 10 0 0,0
10.08.2018 22:00:00 9,5 9,1 - - 11 6 WSW 1019,3 10 0 0,0
10.08.2018 21:00:00 11,9 10,3 - - 11 6 WNW 1018,0 50 12 0,0
10.08.2018 20:00:00 13,0 11,2 - - 15 8 W 1017,4 45 48 0,0
10.08.2018 19:00:00 13,1 11,5 - - 11 6 W 1016,9 13 0 1,4
10.08.2018 18:00:00 15,6 9,7 - - 18 10 W 1016,7 45 54 0,0
10.08.2018 17:00:00 14,9 11,0 - - 11 6 SW 1016,2 45 30 0,0
10.08.2018 16:00:00 13,0 11,8 - - 13 7 NNW 1016,5 35 6 3,0
10.08.2018 15:00:00 11,7 11,2 - - 16 9 N 1016,2 3,0 0 5,8
10.08.2018 14:00:00 12,3 10,9 - - 16 9 NW 1016,7 7 0 3,4
10.08.2018 13:00:00 16,6 9,0 - - 15 8 WSW 1016,7 10 6 0,0
10.08.2018 12:00:00 17,8 8,3 - - 24 13 WSW 1017,1 10 18 0,0
10.08.2018 11:00:00 17,2 8,5 - - 26 14 SW 1017,5 35 60 0,0
10.08.2018 10:00:00 16,5 10,5 18,7 18,4 21 11 SW 1017,7 10 60 0,0
10.08.2018 09:00:00 14,6 11,0 - - 21 11 SW 1017,7 10 60 0,0
10.08.2018 08:00:00 12,5 10,6 - - 15 8 SW 1017,6 35 60 0,0
10.08.2018 07:00:00 11,0 9,9 - - 11 6 SW 1017,7 10 42 0,0
10.08.2018 06:00:00 10,0 9,2 - - 11 6 SW 1017,3 10 0 0,0
10.08.2018 05:00:00 9,9 9,3 - - 11 6 WSW 1017,0 9 0 0,0
10.08.2018 04:00:00 10,7 9,9 - - 13 7 SW 1016,8 8 0 0,2
10.08.2018 03:00:00 11,4 10,5 - - 13 7 SW 1016,7 9 0 0,0
10.08.2018 02:00:00 11,2 10,4 - - 9 5 SW 1016,6 12 0 0,0
10.08.2018 01:00:00 11,9 11,4 - - 8 4 WSW 1016,6 8 - 0,4
10.08.2018 00:00:00 12,6 12,0 - - 15 8 WSW 1016,4 8 0 0,6
09.08.2018 23:00:00 12,5 11,8 - - 13 7 WSW 1016,2 10 0 0,0
09.08.2018 22:00:00 12,1 11,6 - - 13 7 SW 1015,3 11 0 0,0
09.08.2018 21:00:00 12,2 11,7 - - 13 7 WSW 1014,6 10 0 0,0
09.08.2018 20:00:00 12,5 11,7 - - 11 6 W 1013,9 10 0 0,0

tt = temperature
td = dewpoint
tt -20cm = temperature -20cm
tt -100cm = temperature -100cm
ff = wind speed
dd = wind direction
ppp = reduced air pressure
vv = visibility
sd = sunshine duration
rr = precipitation

Next stations